Location: Little Chesterford
(52.0500°N, 0.1833°E)
Time: 19:48:44
(UTC+00:00)

Cosmos 494 Rocket - Pass Details

Date: 26 September 2023
Orbit: 741 x 768 km, 74.1° (Epoch: 08 December)

Event Time Altitude Azimuth Distance (km) Brightness Sun altitude
Rises 18:18:28 0° 195° (SSW) 3,224 7.4 -5.4°
Reaches altitude 10° 18:20:51 10° 192° (SSW) 2,300 6.6 -5.7°
Maximum altitude 18:26:02 68° 111° (ESE) 823 4.0 -6.5°
Drops below altitude 10° 18:31:13 10° 29° (NNE) 2,300 6.3 -7.3°
Sets 18:33:35 0° 27° (NNE) 3,226 7.0 -7.7°
